| time (UTC) | temp C | wind direction | speed KPH | gust KPH | rain 1hr cm | rain 24hr cm | rain mn cm | humidity % | barometer mb |
| 20260504214538 | 11 | 340 | 8.0 | 14.5 | 0.00 | 0.61 | 0.61 | 48 | 1010.3 |
| 20260504213538 | 11 | 358 | 3.2 | 8.0 | 0.03 | 0.61 | 0.61 | 51 | 1010.3 |
| 20260504212518 | 11 | 336 | 3.2 | 6.4 | 0.03 | 0.61 | 0.61 | 48 | 1010.3 |
| 20260504211518 | 12 | 337 | 3.2 | 12.9 | 0.03 | 0.61 | 0.61 | 50 | 1010.5 |
| 20260504210518 | 11 | 338 | 1.6 | 6.4 | 0.03 | 0.61 | 0.61 | 52 | 1010.8 |
| 20260504205518 | 11 | 338 | 3.2 | 6.4 | 0.08 | 0.61 | 0.61 | 51 | 1011.1 |
| 20260504204518 | 10 | 269 | 0.0 | 4.8 | 0.13 | 0.61 | 0.61 | 64 | 1011.4 |
| 20260504203518 | 10 | 225 | 0.0 | 3.2 | 0.28 | 0.58 | 0.58 | 60 | 1011.5 |
| 20260504202518 | 10 | 4 | 0.0 | 3.2 | 0.41 | 0.58 | 0.58 | 60 | 1011.4 |
| 20260504201519 | 9 | 175 | 1.6 | 4.8 | 0.46 | 0.58 | 0.58 | 69 | 1011.6 |
| 20260504200519 | 7 | 137 | 0.0 | 3.2 | 0.53 | 0.58 | 0.58 | 83 | 1011.8 |
| 20260504195519 | 7 | 84 | 0.0 | 4.8 | 0.51 | 0.53 | 0.53 | 79 | 1011.8 |
| 20260504194519 | 7 | 273 | 1.6 | 8.0 | 0.46 | 0.48 | 0.48 | 73 | 1011.9 |
| 20260504193519 | 8 | 0 | 1.6 | 8.0 | 0.30 | 0.30 | 0.30 | 67 | 1012.0 |
| 20260504192519 | 8 | 308 | 0.0 | 3.2 | 0.15 | 0.18 | 0.18 | 66 | 1011.9 |
| 20260504191539 | 10 | 221 | 1.6 | 4.8 | 0.10 | 0.10 | 0.10 | 65 | 1011.9 |
| 20260504190517 | 10 | 328 | 1.6 | 9.7 | 0.03 | 0.03 | 0.03 | 50 | 1011.9 |
| 20260504185517 | 10 | 315 | 3.2 | 8.0 | 0.03 | 0.03 | 0.03 | 49 | 1011.8 |
| 20260504184517 | 10 | 352 | 4.8 | 14.5 | 0.03 | 0.03 | 0.03 | 50 | 1011.8 |
| 20260504183520 | 10 | 12 | 1.6 | 8.0 | 0.03 | 0.03 | 0.03 | 52 | 1011.9 |
| 20260504182520 | 11 | 333 | 4.8 | 12.9 | 0.03 | 0.03 | 0.03 | 48 | 1012.2 |
| 20260504181520 | 12 | 10 | 9.7 | 30.6 | 0.00 | 0.00 | 0.00 | 38 | 1012.0 |
| 20260504180518 | 13 | 134 | 3.2 | 9.7 | 0.00 | 0.00 | 0.00 | 36 | 1011.8 |
| 20260504175518 | 12 | 137 | 4.8 | 9.7 | 0.00 | 0.00 | 0.00 | 36 | 1011.8 |
| 20260504174518 | 13 | 160 | 6.4 | 12.9 | 0.00 | 0.00 | 0.00 | 36 | 1011.9 |
| 20260504173538 | 13 | 124 | 3.2 | 9.7 | 0.00 | 0.00 | 0.00 | 36 | 1012.0 |
| 20260504172518 | 12 | 138 | 6.4 | 16.1 | 0.00 | 0.00 | 0.00 | 37 | 1012.1 |
| 20260504171518 | 12 | 154 | 8.0 | 22.5 | 0.00 | 0.00 | 0.00 | 38 | 1012.2 |
| 20260504170518 | 12 | 134 | 3.2 | 9.7 | 0.00 | 0.00 | 0.00 | 38 | 1012.3 |
| 20260504150517 | 10 | 148 | 3.2 | 8.0 | 0.00 | 0.00 | 0.00 | 36 | 1012.4 |
| 20260504140517 | 10 | 179 | 1.6 | 6.4 | 0.00 | 0.00 | 0.00 | 34 | 1012.4 |
| 20260504130518 | 5 | 253 | 0.0 | 3.2 | 0.00 | 0.00 | 0.00 | 42 | 1012.2 |
| 20260504110519 | 0 | 192 | 0.0 | 3.2 | 0.00 | 0.00 | 0.00 | 58 | 1011.8 |
| 20260504100521 | 0 | 260 | 0.0 | 3.2 | 0.00 | 0.00 | 0.00 | 55 | 1012.0 |
| 20260504081518 | 1 | 215 | 0.0 | 1.6 | 0.00 | 0.00 | 0.00 | 50 | 1012.9 |
| 20260504080518 | 1 | 243 | 0.0 | 3.2 | 0.00 | 0.00 | 0.00 | 50 | 1013.0 |
| 20260504050520 | 3 | 210 | 0.0 | 3.2 | 0.00 | 0.00 | 0.00 | 48 | 1014.4 |
| 20260504045517 | 3 | 219 | 1.6 | 3.2 | 0.00 | 0.00 | 0.00 | 49 | 1014.5 |
| 20260504044517 | 3 | 207 | 0.0 | 3.2 | 0.00 | 0.00 | 0.00 | 51 | 1014.5 |
| 20260504043517 | 4 | 206 | 0.0 | 1.6 | 0.00 | 0.00 | 0.00 | 49 | 1014.6 |
| 20260504042540 | 4 | 203 | 0.0 | 1.6 | 0.00 | 0.00 | 0.00 | 47 | 1014.7 |
| 20260504041520 | 5 | 27 | 0.0 | 1.6 | 0.00 | 0.00 | 0.00 | 46 | 1014.8 |
| 20260504040518 | 5 | 187 | 0.0 | 0.0 | 0.00 | 0.00 | 0.00 | 45 | 1014.8 |
| 20260504035518 | 5 | 241 | 0.0 | 1.6 | 0.00 | 0.00 | 0.00 | 45 | 1014.7 |
| 20260504034518 | 5 | 0.0 | 0.0 | 0.00 | 0.00 | 0.00 | 45 | 1014.7 | |
| 20260504033518 | 6 | 213 | 0.0 | 3.2 | 0.00 | 0.00 | 0.00 | 44 | 1014.7 |
| 20260504032518 | 6 | 247 | 0.0 | 1.6 | 0.00 | 0.00 | 0.00 | 43 | 1014.7 |
| 20260504031538 | 6 | 0.0 | 0.0 | 0.00 | 0.00 | 0.00 | 42 | 1014.6 | |
| 20260504030518 | 7 | 229 | 0.0 | 3.2 | 0.00 | 0.00 | 0.00 | 42 | 1014.5 |
| 20260504025518 | 7 | 235 | 0.0 | 3.2 | 0.00 | 0.00 | 0.00 | 41 | 1014.4 |
| 20260504024519 | 7 | 200 | 0.0 | 1.6 | 0.00 | 0.00 | 0.00 | 41 | 1014.4 |
| 20260504023538 | 8 | 210 | 0.0 | 1.6 | 0.00 | 0.00 | 0.00 | 40 | 1014.2 |
| 20260504022539 | 8 | 296 | 0.0 | 3.2 | 0.00 | 0.00 | 0.00 | 39 | 1014.2 |
| 20260504021519 | 9 | 209 | 1.6 | 4.8 | 0.00 | 0.00 | 0.00 | 38 | 1014.2 |
| 20260504020539 | 10 | 209 | 1.6 | 4.8 | 0.00 | 0.00 | 0.00 | 37 | 1014.0 |
| 20260504015519 | 11 | 227 | 0.0 | 1.6 | 0.00 | 0.00 | 0.00 | 35 | 1013.9 |
| 20260504014519 | 11 | 205 | 0.0 | 1.6 | 0.00 | 0.00 | 0.00 | 34 | 1013.9 |
| 20260504013519 | 12 | 213 | 0.0 | 1.6 | 0.00 | 0.00 | 0.00 | 32 | 1013.8 |
| 20260504012517 | 12 | 146 | 1.6 | 6.4 | 0.00 | 0.00 | 0.00 | 31 | 1013.9 |
| 20260504011517 | 12 | 145 | 3.2 | 6.4 | 0.00 | 0.00 | 0.00 | 30 | 1014.0 |
| 20260504010519 | 12 | 171 | 3.2 | 9.7 | 0.00 | 0.00 | 0.00 | 32 | 1013.9 |
| 20260504005520 | 12 | 138 | 1.6 | 8.0 | 0.00 | 0.00 | 0.00 | 32 | 1014.2 |
| 20260504004520 | 12 | 170 | 4.8 | 17.7 | 0.00 | 0.00 | 0.00 | 31 | 1014.1 |
| 20260504003518 | 13 | 175 | 4.8 | 17.7 | 0.00 | 0.00 | 0.00 | 30 | 1014.2 |
| 20260504002517 | 13 | 152 | 4.8 | 17.7 | 0.00 | 0.00 | 0.00 | 31 | 1014.2 |
| 20260504001517 | 13 | 125 | 6.4 | 16.1 | 0.00 | 0.00 | 0.00 | 31 | 1014.4 |
| 20260504000517 | 13 | 167 | 6.4 | 24.1 | 0.00 | 0.00 | 0.00 | 30 | 1014.4 |
| 20260503235541 | 13 | 146 | 3.2 | 14.5 | 0.00 | 0.00 | 0.00 | 29 | 1014.4 |
| 20260503234517 | 14 | 162 | 4.8 | 17.7 | 0.00 | 0.00 | 0.00 | 27 | 1014.3 |
| 20260503233518 | 14 | 154 | 3.2 | 11.3 | 0.00 | 0.00 | 0.00 | 25 | 1014.3 |
| 20260503232519 | 14 | 163 | 1.6 | 4.8 | 0.00 | 0.00 | 0.00 | 27 | 1014.4 |
| 20260503231519 | 15 | 213 | 3.2 | 8.0 | 0.00 | 0.00 | 0.00 | 26 | 1014.3 |
| 20260503230518 | 14 | 303 | 3.2 | 8.0 | 0.00 | 0.00 | 0.00 | 25 | 1014.2 |
| 20260503225518 | 13 | 323 | 1.6 | 9.7 | 0.00 | 0.00 | 0.00 | 27 | 1014.4 |
| 20260503224518 | 13 | 6 | 6.4 | 24.1 | 0.00 | 0.00 | 0.00 | 29 | 1015.1 |
| 20260503223539 | 13 | 176 | 6.4 | 14.5 | 0.00 | 0.00 | 0.00 | 28 | 1014.5 |
| 20260503222519 | 14 | 155 | 8.0 | 20.9 | 0.00 | 0.00 | 0.00 | 27 | 1014.4 |
| 20260503221519 | 14 | 146 | 8.0 | 14.5 | 0.00 | 0.00 | 0.00 | 25 | 1014.5 |
| 20260503220519 | 15 | 147 | 8.0 | 17.7 | 0.00 | 0.00 | 0.00 | 24 | 1014.5 |
| 20260503215519 | 15 | 159 | 4.8 | 17.7 | 0.00 | 0.00 | 0.00 | 22 | 1014.6 |